Location: Newark
(48.1500°N, 13.1167°E)
Time: 16:53:39
(UTC+00:00)

XW-2D - Pass Details

Date: 11 December 2021
Orbit: 502 x 522 km, 97.5° (Epoch: 17 January)

Event Time Altitude Azimuth Distance (km) Brightness Sun altitude
Rises 16:14:45 0° 169° (S) 2,622 ? -9.7°
Reaches altitude 10° 16:16:49 10° 171° (S) 1,743 ? -10.0°
Maximum altitude 16:20:35 77° 258° (WSW) 539 ? -10.6°
Drops below altitude 10° 16:24:24 10° 344° (NNW) 1,769 ? -11.2°
Sets 16:26:32 0° 346° (NNW) 2,664 ? -11.5°
